This is the latest recevied weather packets stored in our database for station/object K0WOI. If no packets are shown the sender has not sent any weather packets the latest 10 day(s).
| Time | Temp. | Humidity | Pressure | Rain* | Wind** | Luminosity | Snow |
|---|---|---|---|---|---|---|---|
| 1777634118 | 3.89° C | 90% | 1016.4 hPa | 0 mm | - | 0 W/m² | - |
| 1777633815 | 3.89° C | 90% | 1016.5 hPa | 0 mm | - | 0 W/m² | - |
| 1777633512 | 3.89° C | 89% | 1016.3 hPa | 0 mm | - | 0 W/m² | - |
| 1777633210 | 3.89° C | 89% | 1016.6 hPa | 0 mm | - | 0 W/m² | - |
| 1777632907 | 3.89° C | 89% | 1016.5 hPa | 0 mm | - | 0 W/m² | - |
| 1777632603 | 3.89° C | 90% | 1016.7 hPa | 0 mm | - | 0 W/m² | - |
| 1777632300 | 3.89° C | 90% | 1016.7 hPa | 0 mm | - | 0 W/m² | - |
| 1777631996 | 3.89° C | 92% | 1016.6 hPa | 0 mm | - | 0 W/m² | - |
| 1777631695 | 3.89° C | 91% | 1016.7 hPa | 0 mm | - | 0 W/m² | - |
| 1777631392 | 4.44° C | 91% | 1016.7 hPa | 0 mm | - | 0 W/m² | - |
| 1777631089 | 4.44° C | 90% | 1016.7 hPa | 0 mm | - | 0 W/m² | - |
| 1777630785 | 4.44° C | 90% | 1016.6 hPa | 0 mm | - | 0 W/m² | - |
| 1777630482 | 3.89° C | 91% | 1016.8 hPa | 0 mm | - | 0 W/m² | - |
| 1777630179 | 3.89° C | 92% | 1016.9 hPa | 0 mm | - | 0 W/m² | - |
| 1777629877 | 3.33° C | 92% | 1016.8 hPa | 0 mm | - | 0 W/m² | - |
| 1777629574 | 3.33° C | 92% | 1016.8 hPa | 0 mm | - | 0 W/m² | - |
| 1777629270 | 3.33° C | 91% | 1016.6 hPa | 0 mm | - | 0 W/m² | - |
| 1777628966 | 3.33° C | 90% | 1016.7 hPa | 0 mm | - | 0 W/m² | - |
| 1777628663 | 3.33° C | 89% | 1016.6 hPa | 0 mm | - | 0 W/m² | - |
| 1777628359 | 3.89° C | 89% | 1016.6 hPa | 0 mm | - | 0 W/m² | - |
| 1777628055 | 3.89° C | 87% | 1016.5 hPa | 0 mm | - | 0 W/m² | - |
| 1777627755 | 3.89° C | 86% | 1016.5 hPa | 0 mm | - | 0 W/m² | - |
| 1777627454 | 4.44° C | 84% | 1016.8 hPa | 0 mm | - | 0 W/m² | - |
| 1777627150 | 4.44° C | 82% | 1016.9 hPa | 0 mm | - | 0 W/m² | - |
| 1777626847 | 5° C | 82% | 1016.7 hPa | 0 mm | - | 0 W/m² | - |
* Rain latest hour (hover to see other rain measurements)
** Current wind speed in m/s (hover to see current wind gust speed)